Weather History for Hagerstown, MD

Change the Weather History Date:

Wednesday, February 13, 2013

  Actual Average Record
Temperature  
Mean Temperature 34 °F -  
Max Temperature 41 °F 40 °F 53 °F (2011)
Min Temperature 27 °F 25 °F 15 °F (1997)
Degree Days  
Heating Degree Days 31    
Month to date heating degree days 434  
Moisture  
Dew Point 30 °F    
Average Humidity 76    
Maximum Humidity 92    
Minimum Humidity 60    
Precipitation  
Precipitation T in - - ()
Month to date precipitation 0.20  
Year to date precipitation 3.18  
Sea Level Pressure  
Sea Level Pressure 29.79 in    
Wind  
Wind Speed 4 mph (NNW)    
Max Wind Speed 12 mph    
Max Gust Speed 15 mph    
Visibility 4 miles    
Events Fog , Snow    
Averages and records for this station are not official NWS values.
T = Trace of Precipitation, MM = Missing Value Source: NWS Daily Summary

Daily Weather History Graph

Daily Weather History Graph

Search for Another Location

Airport:

Trip Planner

Search our weather history database for the weather conditions in past years. The results will help you decide how hot, cold, wet, or windy it might be!

Date:

Astronomy

Feb. 13, 2013 Rise Set
Actual Time 7:05 AM EST 5:45 PM EST
Civil Twilight 6:37 AM EST 6:12 PM EST
Nautical Twilight 6:06 AM EST 6:44 PM EST
Astronomical Twilight 5:34 AM EST 7:15 PM EST
Moon 8:34 AM EST (2/13) 9:45 PM EST (2/13)
Length of Visible Light 11h 35m
Length of Day
10h 39m
Waxing Crescent, 13% of the Moon is Illuminated
Feb 13
Waxing Crescent
Feb 17
First Quarter
Feb 25
Full
Mar 4
Last Quarter
Mar 11
New

Hourly Weather History & Observations

Time (EST) Temp. Windchill Dew Point Humidity Pressure Visibility Wind Dir Wind Speed Gust Speed Precip Events Conditions
12:53 AM 34.0 °F - 25.0 °F 70% 29.97 in 10.0 mi Calm Calm - N/A   Clear
1:53 AM 32.0 °F 28.7 °F 24.1 °F 73% 29.96 in 10.0 mi North 3.5 mph - N/A   Clear
2:53 AM 30.0 °F 25.2 °F 24.1 °F 79% 29.94 in 10.0 mi NW 4.6 mph - N/A   Clear
3:53 AM 28.9 °F 21.9 °F 24.1 °F 82% 29.93 in 8.0 mi North 6.9 mph - N/A   Clear
4:53 AM 28.0 °F 24.2 °F 24.1 °F 85% 29.93 in 8.0 mi NW 3.5 mph - N/A   Clear
5:53 AM 28.0 °F 24.2 °F 23.0 °F 81% 29.91 in 7.0 mi North 3.5 mph - N/A   Clear
6:53 AM 27.0 °F 21.6 °F 24.1 °F 89% 29.91 in 7.0 mi NW 4.6 mph - N/A   Scattered Clouds
7:53 AM 28.0 °F - 25.0 °F 88% 29.89 in 6.0 mi Calm Calm - N/A   Overcast
8:53 AM 30.0 °F 26.5 °F 26.1 °F 85% 29.90 in 6.0 mi SW 3.5 mph - N/A   Overcast
9:53 AM 35.1 °F 30.1 °F 27.0 °F 72% 29.89 in 7.0 mi West 5.8 mph - N/A   Overcast
10:53 AM 37.0 °F - 27.0 °F 67% 29.88 in 8.0 mi Calm Calm - N/A   Overcast
11:53 AM 37.9 °F 33.5 °F 27.0 °F 65% 29.81 in 9.0 mi East 5.8 mph - N/A   Overcast
12:53 PM 39.9 °F 36.7 °F 28.0 °F 63% 29.79 in 8.0 mi North 4.6 mph - N/A   Overcast
1:53 PM 39.9 °F 36.7 °F 28.0 °F 63% 29.78 in 8.0 mi NNW 4.6 mph - N/A   Overcast
2:53 PM 41.0 °F 38.0 °F 28.0 °F 60% 29.74 in 8.0 mi NNE 4.6 mph - N/A   Overcast
3:53 PM 37.9 °F 31.5 °F 30.0 °F 73% 29.73 in 6.0 mi North 9.2 mph - N/A   Haze
4:48 PM 35.6 °F 31.7 °F 33.8 °F 93% 29.67 in 5.0 mi NE 4.6 mph - 0.00 in   Overcast
4:53 PM 35.1 °F 31.0 °F 33.1 °F 92% 29.73 in 5.0 mi NE 4.6 mph - 0.00 in   Overcast
5:01 PM 35.6 °F 29.9 °F 33.8 °F 93% 29.67 in 3.0 mi North 6.9 mph - 0.00 in Snow Light Snow
5:08 PM 35.6 °F 29.9 °F 33.8 °F 93% 29.68 in 3.0 mi North 6.9 mph - 0.00 in   Overcast
5:24 PM 35.6 °F 29.2 °F 33.8 °F 93% 29.68 in 3.0 mi North 8.1 mph - 0.00 in   Overcast
5:34 PM 33.8 °F 27.0 °F 33.8 °F 100% 29.68 in 2.5 mi North 8.1 mph - 0.00 in   Overcast
5:53 PM 34.0 °F 27.2 °F 33.1 °F 96% 29.73 in 2.5 mi North 8.1 mph - 0.01 in Snow Light Snow
6:45 PM 33.8 °F 28.6 °F 33.8 °F 100% 29.70 in 1.8 mi NNW 5.8 mph - 0.01 in Snow Light Snow
6:53 PM 33.1 °F 30.0 °F 33.1 °F 100% 29.75 in 1.2 mi North 3.5 mph - 0.02 in Snow Light Snow
7:13 PM 33.8 °F 29.6 °F 33.8 °F 100% 29.70 in 1.0 mi NNW 4.6 mph - 0.01 in Snow Light Snow
7:21 PM 33.8 °F 29.6 °F 33.8 °F 100% 29.70 in 0.8 mi NNW 4.6 mph - 0.02 in Snow Light Snow
7:30 PM 33.8 °F 30.8 °F 33.8 °F 100% 29.71 in 1.0 mi NNW 3.5 mph - 0.02 in Snow Light Snow
7:38 PM 33.8 °F 29.6 °F 33.8 °F 100% 29.71 in 1.0 mi NNW 4.6 mph - 0.02 in Snow Light Snow
7:46 PM 33.8 °F 29.6 °F 33.8 °F 100% 29.71 in 0.5 mi NW 4.6 mph - 0.03 in Fog , Snow Light Snow
7:53 PM 33.1 °F 30.0 °F 33.1 °F 100% 29.76 in 0.5 mi NNW 3.5 mph - 0.03 in Fog , Snow Light Snow
8:53 PM 32.0 °F 28.7 °F 32.0 °F 100% 29.77 in 0.2 mi WNW 3.5 mph - 0.03 in Fog , Snow Light Snow
9:53 PM 32.0 °F - 32.0 °F 100% 29.78 in 0.2 mi Calm Calm - 0.03 in Fog , Snow Light Snow
10:25 PM 32.0 °F 28.7 °F 32.0 °F 100% 29.73 in 0.2 mi NW 3.5 mph - 0.00 in Fog Fog
10:53 PM 32.0 °F - 32.0 °F 100% 29.80 in 0.2 mi Calm Calm - 0.00 in Fog , Snow Light Snow
11:03 PM 32.0 °F - 32.0 °F 100% 29.75 in 0.2 mi Calm Calm - 0.00 in Fog Fog
11:33 PM 32.0 °F - 32.0 °F 100% 29.76 in 0.5 mi Calm Calm - 0.00 in Fog Fog
11:53 PM 32.0 °F - 32.0 °F 100% 29.81 in 0.2 mi Calm Calm - 0.00 in Fog Fog
11:58 PM 32.0 °F - 32.0 °F 100% 29.76 in 0.2 mi Calm Calm - N/A Fog Fog